Wind_Speed
13 11 9 9 11 12 12 12 13 13 14 14 15 17 19 20 19 16 14 13 13 12 12 12 12 12 14 15 16 18 17 16 17 18 19 19 20 21 22 23 24 24 25 26 27 28 28
15 13 12 11 12 13 13 14 15 15 15 15 17 19 20 18 14 12 10 10 10 9 10 10 10 11 12 13 14 14 15 16 16 16 18 19 20 22 24 26 28 29 30 30 31 31 31
15 15 14 13 13 14 15 16 16 16 17 18 20 19 17 14 12 10 9 9 10 11 12 12 11 11 12 11 12 13 13 13 15 15 16 18 20 21 23 25 27 30 31 33 34 35 34
15 15 14 14 13 14 16 17 17 19 20 19 17 15 13 12 10 9 10 12 13 13 13 14 14 14 14 14 15 15 16 16 18 18 19 20 21 22 24 26 27 29 31 32 33 35 38
16 15 15 15 16 16 17 18 21 19 15 14 13 12 11 9 9 10 12 12 14 15 15 16 15 16 17 18 16 17 18 19 19 19 20 21 21 23 25 28 31 31 34 34 35 37 41
16 16 16 17 18 19 20 20 18 15 14 13 12 10 9 11 12 13 13 14 16 18 19 19 19 20 21 21 20 23 21 19 20 21 23 22 23 24 26 31 32 34 37 39 40 40 43
16 17 17 18 19 20 20 17 15 14 13 11 11 12 14 16 17 19 20 21 22 24 26 26 25 25 24 24 24 21 21 21 21 22 23 24 26 25 31 32 34 37 39 42 42 43 49
15 16 17 20 20 19 16 14 13 11 11 11 13 15 17 19 21 23 27 29 29 30 28 31 33 31 26 23 21 20 20 20 22 23 24 27 26 31 32 35 36 38 41 41 43 45 50
16 17 16 17 18 17 15 12 13 13 14 15 18 21 22 25 28 31 32 34 34 35 35 32 33 32 26 20 19 20 21 22 23 25 27 28 29 32 35 37 37 38 42 41 46 47 50
16 16 17 17 17 16 15 15 16 17 20 22 24 27 29 31 34 35 36 37 36 35 32 26 23 18 17 19 20 24 24 25 27 29 31 31 33 36 37 37 38 42 40 44 46 49 51
17 18 18 19 17 17 17 18 20 22 23 26 29 31 34 36 36 35 36 38 34 29 23 20 16 18 19 22 25 25 28 29 32 34 34 35 37 40 40 38 41 44 45 48 49 49 50
18 19 19 18 19 19 20 22 23 25 28 30 34 36 38 37 37 38 37 33 27 23 22 19 22 21 25 27 30 32 33 35 38 39 40 42 43 43 44 45 45 46 47 47 48 49 54
19 19 20 20 21 21 23 23 25 27 32 34 33 33 34 35 34 34 32 29 26 23 26 25 25 27 30 32 34 35 37 39 42 45 45 44 44 45 46 47 48 48 48 48 50 51 53
20 20 20 21 21 19 20 23 29 30 29 29 32 34 35 35 33 31 30 28 28 26 28 28 28 31 34 36 37 39 41 44 47 50 51 51 48 49 49 45 45 45 45 44 43 42 45
20 20 20 20 18 20 25 26 24 27 28 31 33 35 35 34 31 29 29 30 30 31 31 30 32 36 38 39 41 42 45 49 50 52 54 56 53 51 50 47 47 46 45 40 42 42 43
19 18 17 18 22 29 27 24 25 28 31 32 34 35 34 33 31 30 31 34 36 37 37 36 37 41 42 43 45 47 51 51 53 55 58 57 60 53 50 49 47 44 42 41 40 41 41
19 19 20 23 25 23 24 26 29 32 33 33 35 34 34 32 33 34 35 38 40 40 40 40 42 45 47 50 52 55 55 56 57 57 59 60 62 56 52 48 45 43 44 43 39 40 43
24 23 23 26 26 27 26 29 31 33 34 35 33 33 31 33 34 38 41 42 42 42 43 46 47 50 53 55 56 58 61 62 62 63 61 60 63 61 53 50 48 44 43 41 42 41 41
27 26 26 27 27 28 28 28 31 33 33 32 34 36 37 38 39 40 42 45 46 47 48 50 53 54 56 59 62 64 65 66 68 66 65 65 65 65 58 52 50 47 44 43 44 45 44
31 29 27 28 28 29 30 31 33 33 34 36 37 39 40 41 42 44 46 49 50 52 53 55 58 61 63 64 67 70 71 71 69 69 69 70 68 67 64 58 56 53 49 47 46 46 43
33 30 30 33 31 30 33 35 37 37 36 38 41 42 44 46 46 48 51 53 54 56 58 61 65 66 70 74 76 76 76 76 74 73 72 73 73 71 67 64 61 59 54 52 52 48 48
31 34 33 31 31 33 35 36 38 38 39 43 44 45 47 49 50 52 53 54 58 61 63 66 69 72 74 76 78 78 81 82 81 79 77 73 77 75 73 67 65 64 60 58 56 51 48
35 35 32 32 32 35 36 36 37 39 42 46 47 48 50 52 53 54 56 59 61 65 68 71 74 76 78 79 82 84 86 87 86 84 81 77 74 73 73 68 66 67 63 60 59 55 50
37 36 33 32 34 37 37 38 40 43 46 47 48 49 51 52 54 57 59 62 65 69 71 73 75 77 80 83 84 84 83 76 67 59 53 51 54 54 59 59 60 62 60 61 59 57 54
38 35 34 36 36 37 39 40 43 44 47 48 50 51 52 54 56 59 62 65 69 71 72 75 79 82 83 82 81 70 54 43 40 31 28 30 31 26 28 29 38 41 46 51 55 53 53
36 35 35 37 38 40 42 46 49 49 49 49 51 53 54 56 60 63 66 68 70 72 74 79 82 80 75 67 52 42 40 34 27 20 23 25 29 31 19 13 23 33 31 36 37 38 40
35 35 35 37 40 42 45 47 49 51 51 50 52 54 58 61 65 67 68 70 72 74 76 77 74 64 52 43 36 33 26 24 24 25 19 16 18 16 16 14 16 18 24 35 35 40 38
33 32 34 37 41 44 47 48 52 50 47 49 54 58 62 65 68 68 70 72 74 75 74 70 58 45 35 34 30 25 21 22 25 27 27 22 20 23 21 17 23 25 21 33 35 46 41
30 31 35 39 44 45 48 48 44 46 49 53 58 61 65 66 68 68 71 73 73 71 63 46 36 35 33 32 28 25 23 25 26 27 26 23 25 25 27 27 31 29 32 36 39 38 44
Wind_Direction
245 252 261 265 270 278 288 295 299 303 305 307 311 315 318 318 320 321 323 330 331 331 325 310 305 303 300 295 294 296 295 295 295 296 295 294 293 291 288 288 288 288 289 289 289 289 289
245 252 258 266 272 279 287 295 300 303 304 305 308 313 314 315 317 321 332 334 340 344 343 340 331 317 310 309 305 303 303 305 304 301 298 297 296 296 296 296 295 294 294 293 292 292 292
243 250 260 270 276 281 289 296 299 301 300 302 305 307 309 313 315 319 334 342 345 343 337 335 331 327 323 318 310 310 307 303 299 296 294 291 291 293 295 295 297 296 295 296 296 295 294
251 255 264 270 275 284 293 294 296 297 295 297 298 301 307 310 313 328 340 338 335 331 328 325 320 315 314 312 308 306 308 308 306 303 300 297 296 297 296 293 291 291 293 292 292 291 293
252 255 264 270 275 279 289 290 296 293 288 288 295 302 309 320 321 321 322 321 317 313 315 310 307 305 302 300 294 298 296 295 296 297 298 297 297 296 293 292 291 292 291 290 287 290 290
256 264 269 275 279 282 286 288 285 282 284 291 297 301 309 307 309 307 308 308 305 305 302 301 295 291 291 290 284 293 287 286 292 292 293 294 293 296 290 285 292 290 291 291 288 287 283
261 265 271 275 278 279 280 281 285 289 293 302 306 308 310 311 314 311 307 305 302 300 299 296 291 286 282 281 286 284 285 288 288 288 290 290 293 290 287 291 288 289 288 289 289 285 285
268 271 274 277 278 277 279 283 288 293 302 303 302 304 304 304 304 302 301 301 299 296 287 292 289 285 283 278 278 279 282 286 288 292 294 297 298 294 295 292 289 288 289 289 287 282 282
269 274 275 275 277 277 281 286 285 282 288 293 294 296 300 302 302 302 298 298 296 294 288 281 279 280 279 275 279 287 289 290 296 295 296 298 302 299 295 291 291 293 287 286 282 280 278
262 269 270 269 274 277 278 284 288 290 292 294 297 300 302 302 302 300 298 299 298 294 293 288 274 265 264 278 285 290 291 294 297 296 295 298 302 298 297 299 293 289 284 281 281 278 279
259 262 263 269 275 280 283 287 289 291 293 297 299 299 298 299 299 298 300 300 294 290 286 286 270 270 277 287 290 295 293 295 297 297 300 306 303 302 303 301 288 288 282 279 276 273 274
261 263 266 270 274 280 286 291 292 294 296 298 299 301 302 302 301 299 300 293 280 281 281 279 278 280 287 295 299 295 295 297 298 300 302 303 301 304 305 300 290 285 281 278 276 274 270
260 263 271 275 278 280 282 287 293 300 303 303 306 307 308 307 303 299 292 279 274 277 281 280 284 292 296 298 296 294 298 300 300 299 299 297 299 299 302 295 289 286 283 280 276 275 277
264 271 273 274 278 283 289 294 299 302 303 305 307 308 306 306 303 296 283 275 276 280 285 289 293 296 297 295 291 295 298 299 298 297 296 297 299 298 297 293 288 285 286 281 282 279 275
268 272 275 280 280 287 292 298 301 305 306 307 308 310 310 309 301 290 281 277 280 283 284 286 290 291 292 293 294 296 298 300 301 299 297 295 294 296 297 292 286 287 286 280 276 274 273
260 261 268 273 285 293 295 294 299 304 308 310 311 312 310 305 296 286 281 282 284 287 288 288 288 289 289 291 294 299 301 300 298 297 296 295 293 294 294 290 288 286 284 278 274 274 272
257 259 268 285 289 289 290 296 299 303 309 312 312 312 309 300 292 288 285 285 286 286 289 290 291 292 293 296 297 296 298 298 298 296 295 294 292 293 289 291 285 280 277 278 275 268 269
253 259 277 288 286 285 285 295 301 305 305 307 311 313 310 306 294 291 287 286 287 291 292 294 294 296 297 298 298 298 298 297 298 295 293 291 291 290 289 286 283 277 276 274 272 271 266
256 266 280 286 285 284 288 294 301 305 306 308 312 315 312 307 301 295 292 290 292 292 292 295 297 298 299 298 298 297 298 298 297 297 295 292 288 288 286 283 278 274 271 268 266 266 264
257 264 274 285 285 285 288 294 299 305 306 308 308 309 307 303 299 295 294 294 294 294 295 296 298 300 300 300 301 301 299 297 297 295 291 288 284 282 280 278 273 271 268 268 265 263 264
260 267 271 280 282 284 289 292 296 299 302 303 305 305 305 303 300 298 297 296 296 299 300 301 302 302 302 301 298 298 297 296 295 291 287 281 278 275 273 272 269 267 264 262 263 263 260
259 264 277 279 278 285 289 294 296 298 300 303 302 303 302 301 301 300 298 298 299 301 301 301 301 301 302 300 300 299 296 296 294 290 285 277 275 272 270 266 264 262 259 257 257 256 260
259 271 277 276 281 287 290 293 295 298 301 300 301 302 302 302 300 299 300 300 301 301 301 300 301 301 302 302 301 300 299 297 295 292 288 283 278 271 267 264 259 257 255 254 255 255 254
262 272 277 277 283 287 289 291 295 298 299 300 300 301 300 299 300 301 301 301 301 302 302 303 304 304 304 303 302 301 299 298 296 294 291 286 279 276 271 262 257 255 254 252 253 253 252
264 270 274 278 282 287 291 294 294 296 299 301 301 300 299 299 300 301 301 302 302 305 309 309 308 306 305 304 302 302 300 299 300 300 290 272 271 275 291 274 259 256 251 250 253 253 250
264 269 274 279 282 286 291 294 296 299 301 302 300 300 300 301 302 303 304 306 309 311 312 310 308 307 306 305 306 306 306 306 305 305 302 291 280 263 292 271 258 245 232 247 247 246 243
265 269 275 282 286 291 293 297 301 302 303 304 303 302 303 304 305 306 310 311 311 312 311 309 307 306 306 307 310 312 305 301 306 312 315 289 285 283 279 230 255 262 248 233 227 230 228
266 274 282 288 291 294 298 301 303 304 304 305 304 305 306 307 309 312 313 313 313 312 310 310 307 306 307 309 313 306 292 293 295 297 297 302 301 292 271 249 243 238 235 231 227 230 227
271 284 288 291 294 299 302 302 301 303 305 306 306 307 310 313 314 314 314 314 313 311 312 310 309 310 313 312 308 302 289 289 293 299 300 307 297 295 294 287 278 258 250 247 237 230 230
Height
5814 5815 5815 5816 5815 5815 5815 5815 5814 5813 5811 5810 5809 5807 5805 5803 5801 5799 5797 5796 5795 5793 5791 5790 5789 5787 5786 5786 5784 5783 5782 5781 5779 5779 5778 5776 5775 5774 5773 5771 5770 5769 5768 5767 5765 5764 5762
5811 5812 5812 5813 5813 5812 5812 5812 5811 5809 5808 5807 5805 5804 5802 5800 5798 5796 5795 5794 5792 5790 5789 5788 5786 5784 5783 5783 5781 5779 5778 5777 5776 5775 5773 5772 5771 5770 5769 5768 5767 5764 5763 5761 5759 5758 5756
5808 5809 5810 5810 5810 5810 5809 5808 5807 5806 5804 5803 5802 5800 5798 5797 5796 5794 5793 5791 5790 5788 5786 5785 5783 5782 5781 5780 5778 5776 5775 5773 5771 5770 5768 5767 5766 5765 5763 5762 5761 5760 5758 5755 5755 5752 5750
5806 5807 5807 5807 5807 5807 5806 5805 5803 5802 5800 5799 5798 5796 5795 5794 5793 5792 5791 5790 5788 5786 5784 5782 5781 5779 5777 5776 5774 5772 5771 5769 5767 5765 5764 5763 5762 5760 5758 5756 5754 5752 5751 5750 5748 5745 5742
5803 5804 5804 5804 5803 5803 5802 5801 5799 5798 5796 5795 5794 5793 5792 5792 5791 5789 5788 5787 5785 5783 5781 5779 5778 5775 5773 5771 5769 5767 5766 5764 5762 5760 5758 5756 5755 5754 5752 5749 5747 5746 5742 5742 5740 5738 5735
5800 5801 5802 5801 5800 5799 5798 5797 5795 5794 5793 5792 5791 5790 5789 5788 5787 5786 5784 5783 5781 5779 5777 5775 5773 5772 5768 5766 5763 5761 5759 5757 5756 5754 5753 5751 5749 5748 5745 5741 5740 5738 5735 5734 5732 5730 5726
5798 5798 5798 5797 5796 5795 5794 5793 5793 5792 5791 5790 5789 5788 5787 5785 5785 5783 5781 5780 5779 5777 5771 5769 5766 5764 5762 5759 5758 5755 5754 5752 5749 5747 5745 5744 5743 5740 5736 5734 5732 5730 5727 5725 5725 5720 5716
5795 5795 5795 5793 5792 5792 5792 5791 5790 5789 5788 5787 5786 5784 5783 5781 5780 5778 5775 5773 5771 5770 5767 5761 5758 5755 5754 5753 5751 5749 5747 5746 5743 5741 5738 5737 5735 5731 5729 5726 5723 5721 5718 5717 5715 5711 5705
5792 5791 5791 5790 5789 5789 5789 5788 5787 5785 5783 5783 5781 5780 5778 5776 5774 5772 5768 5765 5762 5759 5756 5755 5751 5748 5747 5746 5744 5743 5741 5739 5737 5734 5732 5729 5728 5723 5720 5716 5715 5712 5707 5706 5702 5700 5697
5787 5786 5786 5786 5786 5786 5786 5785 5784 5782 5781 5779 5778 5775 5773 5771 5769 5764 5760 5757 5753 5749 5747 5746 5744 5743 5742 5741 5739 5736 5733 5732 5729 5727 5724 5722 5719 5715 5711 5708 5703 5701 5699 5694 5691 5687 5685
5782 5783 5782 5782 5782 5782 5781 5780 5779 5778 5776 5774 5772 5770 5766 5762 5760 5756 5753 5749 5745 5742 5741 5740 5738 5736 5735 5735 5732 5729 5725 5723 5720 5717 5716 5714 5708 5704 5702 5699 5692 5690 5687 5683 5680 5676 5673
5778 5778 5778 5778 5777 5777 5777 5775 5774 5773 5771 5769 5765 5762 5758 5754 5750 5747 5744 5741 5739 5739 5734 5734 5732 5730 5728 5725 5722 5719 5716 5713 5710 5707 5705 5703 5698 5695 5691 5687 5682 5677 5673 5670 5667 5666 5660
5773 5772 5772 5772 5772 5772 5771 5770 5769 5767 5764 5761 5758 5754 5750 5747 5743 5739 5736 5734 5734 5731 5730 5728 5725 5723 5720 5717 5714 5711 5708 5704 5699 5696 5695 5692 5689 5684 5680 5676 5672 5667 5661 5656 5653 5653 5651
5768 5768 5767 5767 5767 5766 5766 5765 5762 5759 5756 5753 5750 5746 5742 5739 5735 5732 5730 5729 5727 5725 5722 5721 5718 5714 5711 5708 5705 5701 5698 5695 5689 5683 5679 5676 5679 5674 5670 5665 5660 5656 5652 5647 5639 5641 5641
5762 5762 5762 5763 5762 5761 5759 5757 5755 5752 5750 5747 5743 5739 5735 5732 5728 5726 5725 5722 5721 5718 5715 5712 5709 5706 5703 5698 5695 5691 5687 5682 5677 5670 5665 5659 5664 5661 5656 5652 5648 5645 5641 5637 5630 5630 5628
5757 5756 5756 5756 5756 5754 5752 5750 5748 5747 5743 5740 5736 5732 5728 5725 5722 5720 5718 5715 5712 5709 5706 5703 5700 5696 5693 5689 5684 5678 5675 5669 5664 5658 5649 5644 5637 5649 5646 5640 5638 5632 5628 5624 5621 5617 5616
5751 5751 5751 5750 5749 5748 5747 5744 5741 5740 5736 5732 5729 5725 5722 5718 5716 5714 5710 5707 5703 5699 5696 5694 5689 5684 5680 5677 5673 5667 5661 5655 5651 5645 5636 5628 5621 5633 5629 5631 5625 5620 5615 5613 5611 5608 5605
5745 5745 5745 5744 5743 5742 5740 5738 5735 5731 5728 5725 5721 5718 5714 5711 5709 5705 5702 5698 5694 5691 5687 5681 5676 5671 5667 5661 5657 5651 5646 5639 5635 5628 5623 5615 5605 5605 5615 5615 5610 5607 5604 5602 5597 5597 5594
5738 5739 5739 5737 5736 5735 5733 5730 5728 5724 5720 5717 5712 5709 5705 5703 5700 5696 5693 5688 5684 5680 5675 5669 5663 5659 5653 5646 5640 5636 5631 5625 5617 5610 5603 5599 5591 5587 5595 5600 5596 5592 5592 5589 5586 5582 5582
5731 5732 5731 5731 5729 5727 5725 5723 5720 5717 5713 5709 5706 5702 5698 5695 5691 5687 5682 5677 5671 5667 5662 5656 5649 5643 5638 5630 5622 5616 5611 5605 5601 5593 5585 5575 5574 5573 5571 5579 5578 5576 5576 5576 5572 5570 5572
5725 5725 5724 5723 5721 5720 5718 5716 5713 5709 5704 5702 5697 5693 5688 5685 5680 5675 5671 5666 5660 5653 5647 5641 5634 5625 5618 5612 5606 5596 5589 5585 5584 5577 5567 5553 5549 5549 5552 5554 5556 5558 5560 5561 5557 5559 5555
5718 5719 5717 5715 5714 5712 5710 5706 5703 5700 5696 5692 5687 5683 5678 5673 5668 5662 5657 5652 5646 5640 5633 5625 5615 5607 5599 5590 5582 5576 5566 5560 5555 5553 5546 5536 5520 5520 5525 5532 5532 5534 5538 5541 5542 5545 5546
5711 5710 5708 5707 5706 5704 5701 5699 5695 5691 5686 5681 5676 5671 5665 5661 5655 5650 5644 5637 5630 5625 5616 5607 5600 5592 5581 5571 5560 5550 5539 5529 5521 5512 5510 5505 5499 5496 5499 5507 5508 5508 5517 5523 5524 5528 5534
5703 5703 5701 5699 5697 5695 5693 5689 5686 5682 5677 5671 5665 5659 5654 5649 5642 5636 5631 5624 5615 5607 5599 5588 5579 5570 5559 5547 5537 5526 5512 5502 5493 5488 5482 5478 5475 5471 5473 5481 5481 5488 5497 5502 5505 5509 5515
5695 5694 5692 5691 5689 5687 5684 5680 5677 5672 5667 5660 5654 5649 5643 5636 5630 5623 5616 5608 5599 5588 5579 5567 5554 5546 5534 5524 5514 5504 5496 5490 5480 5476 5472 5467 5466 5464 5463 5465 5468 5472 5475 5482 5486 5492 5496
5686 5685 5683 5682 5680 5678 5674 5670 5666 5661 5655 5649 5642 5636 5630 5623 5617 5608 5600 5592 5583 5573 5560 5547 5532 5521 5511 5502 5492 5485 5480 5476 5475 5473 5468 5464 5461 5463 5461 5458 5460 5458 5466 5470 5474 5477 5479
5677 5676 5675 5673 5671 5668 5664 5658 5653 5648 5643 5637 5629 5622 5616 5608 5600 5593 5585 5576 5566 5555 5545 5532 5520 5509 5496 5489 5484 5479 5475 5471 5469 5466 5463 5460 5458 5456 5455 5454 5455 5454 5457 5461 5465 5465 5465
5669 5668 5666 5665 5662 5657 5652 5645 5640 5635 5628 5624 5618 5609 5601 5592 5585 5576 5567 5559 5548 5538 5526 5514 5504 5496 5491 5483 5477 5472 5470 5467 5464 5462 5458 5456 5453 5451 5450 5449 5449 5447 5448 5449 5446 5448 5453
5661 5659 5657 5654 5650 5645 5640 5634 5629 5623 5617 5611 5605 5597 5586 5576 5568 5562 5551 5541 5528 5516 5509 5499 5494 5487 5481 5476 5471 5467 5465 5462 5458 5455 5453 5452 5450 5446 5445 5441 5438 5438 5436 5435 5436 5438 5442